DELTA 1 DEB, 28443

Orbit data source: Space-Track

DELTA 1 DEB, 28443 is space debris in LEO originally from a launch on Thu, 08 Feb 1962 UTC launched from the Air Force Eastern Test Range (AFETR). Debris objects in space refer to the collection of defunct objects orbiting the Earth. Examples of debris include non-operational satellites, rocket bodies, and fragments generated from explosions, collisions, or faulty payload assembly.

Loading next visibility...
Identifier
28443, 1962-002E
Orbit
LEO
Last TLE update
16 hours ago
Origin
Manufacturer
LM/EW
Mission
Spacecraft
Bus & Motor
Unknown
Mass
Unknown
Launch date (UTC)
1962-02-08 (63 years ago)
Launch vehicle
Unknown
Launch site
Air Force Eastern Test Range (AFETR)
Object type
Payload
Rocket body
Debris
Shape & HBR
Unknown
Radar Cross Section
Small (<0.1 m²)

Expand to show TLE details & history

TLE from 16 hours ago
0 DELTA 1 DEB
1 28443U 62002E   25169.46754256  .00000605  00000-0  16513-3 0  9993
2 28443  48.2700 313.7237 0072062 164.0026 241.1509 14.58177958254251
Epoch: 2025-06-18T11:13Z
TLE epoch observation values (Epoch: 2025-06-18T11:13:15.677Z)
Latitude
31.60309°
Longitude
-88.45923°
Altitude
725.395 km
Speed
7.484 km/s
True Right ascension
23h 07m 13s
True Declination
31° 26' 57"
Sunlit
Object was in daylight at epoch
Visualization orbit readout
Latitude
11.48929°
Longitude
-114.28679°
Altitude
743.332 km
Speed
7.462 km/s
Apparent Right ascension
23h 22m 35s
Apparent Declination
-15° 35' 15"
Sunlit
Object is in full shadow
Visualization observer readout
Local Sidereal Time
14:21:59
Azimuth
71.137° E
Elevation
-44.122°
Doppler factor
1
Orbital elements
Apogee altitude
751.099 km
Perigee altitude
649.085 km
Semi-major axis
7,078.229 km
Eccentricity
0.00721
Inclination
48.27°
RAAN
313.7237°
Arg. of periapsis
164.0026°
True anomaly
Unknown
Mean anomaly
241.1509°
Eccentric anomaly
Unknown
Mean motion
3.64465 °/min
Orbital period
98.77 mins
BSTAR
0.00016513
Loading maneuver chart data...
Loading SW <> Apogee altitude chart data...
Loading historical data...
Loading historical data...
Loading historical data...
Loading historical data...
Loading historical data...
Loading historical data...
Loading historical data...
Other satellites on launch #2 in the year 1962 (1962-02-08 UTC)

DELTA 1 DEB Visibility forecast

Observer location: undefined°, undefined°

Span
Click to sort rows by Start time (UTC) header in descending order
Start Az.
Max El. time (UTC)
Max El. Az.
Max El.
End time (UTC)
End Az.
8 mins2025-06-19 11:50:58.780Z201.513° SSW2025-06-19 11:54:58.780Z133.416° SE31.935°2025-06-19 11:58:58.780Z73.775° E
7 mins2025-06-19 13:34:58.780Z263.801° W2025-06-19 13:37:58.780Z328.797° NNW39.932°2025-06-19 13:41:58.780Z51.75° ENE
7 mins2025-06-19 15:18:58.780Z301.676° NW2025-06-19 15:21:58.780Z350.42° N27.275°2025-06-19 15:25:58.780Z54.989° ENE
7 mins2025-06-19 17:02:58.780Z312.596° NW2025-06-19 17:05:58.780Z1.561° NNE32.345°2025-06-19 17:09:58.780Z81.75° E
7 mins2025-06-19 18:46:58.780Z292.213° WNW2025-06-19 18:49:58.780Z220.102° SW42.21°2025-06-19 18:53:58.780Z135.886° SSE
|